{"data":{"norad_id":67435,"epoch":"2026-05-24T18:36:03.375648Z","epoch_age_seconds":88244,"freshness":"FRESH","line1":"1 67435U 26007A   26144.77503907 -.00000091  00000+0  71090-4 0  9996","line2":"2 67435  50.0057 169.8115 0000892 281.1737  78.9035 13.29325902 17672","mean_motion":13.29325902,"eccentricity":8.92e-5,"inclination_deg":50.0057,"raan_deg":169.8115,"arg_perigee_deg":281.1737,"mean_anomaly_deg":78.9035,"bstar":7.109e-5,"rev_number":1767,"period_min":108.32558049411,"perigee_km":1148.6354938108,"apogee_km":1149.9783898101,"semimajor_km":7527.4439418104,"source":"CELESTRAK","updated_at":"2026-05-25T13:38:07.003421Z"}}